FW9627 Weather Reports


time (UTC)temp
F
wind
direction
speed
knots
gust
knots
rain 1hr
in
rain 24hr
in
rain mn
in
humidity
%
barometer
mb
20260510153540 83 351 1.7 1.7 0.00 0.00 0.00 63 996.6
20260510153037 79 323 0.0 0.0 0.00 0.00 0.00 71 996.8
20260510152534 83 75 1.7 1.7 0.00 0.00 0.00 63 996.5
20260510152030 83 148 0.0 0.9 0.00 0.00 0.00 66 996.6
20260510151527 80 300 0.0 0.0 0.00 0.00 0.00 69 996.7
20260510151025 80 290 0.9 1.7 0.00 0.00 0.00 68 996.6
20260510150519 82 161 2.6 2.6 0.00 0.00 0.00 67 996.5
20260510150016 80 283 0.0 0.9 0.00 0.00 0.00 67 996.7
20260510145512 82 299 0.0 0.9 0.00 0.00 0.00 67 996.8
20260510145009 78 303 0.0 0.9 0.00 0.00 0.00 73 996.7
20260510144505 80 150 3.5 4.3 0.00 0.00 0.00 73 997.0
20260510144000 80 20 0.0 0.9 0.00 0.00 0.00 72 996.6
20260510143451 77 194 2.6 2.6 0.00 0.00 0.00 77 996.5
20260510142948 75 199 3.5 5.2 0.00 0.00 0.00 80 996.4
20260510142444 75 255 0.9 0.9 0.00 0.00 0.00 82 996.5
20260510141941 76 216 1.7 2.6 0.00 0.00 0.00 79 996.6
20260510141437 76 233 1.7 1.7 0.00 0.00 0.00 79 996.5
20260510140935 75 315 0.0 0.0 0.00 0.00 0.00 81 996.1
20260510140426 75 228 1.7 2.6 0.00 0.00 0.00 81 996.3
20260510135924 76 182 1.7 2.6 0.00 0.00 0.00 80 996.1
20260510135415 74 191 2.6 2.6 0.00 0.00 0.00 82 996.1
20260510134913 76 258 0.0 0.0 0.00 0.00 0.00 78 996.1
20260510134409 76 299 0.0 0.0 0.00 0.00 0.00 80 996.1
20260510133905 75 246 0.0 0.9 0.00 0.00 0.00 82 996.1
20260510133402 73 296 0.0 0.0 0.00 0.00 0.00 86 996.1
20260510132857 72 343 0.0 0.9 0.00 0.00 0.00 87 996.1
20260510132355 71 177 0.0 0.0 0.00 0.00 0.00 92 996.1
20260510131852 69 319 0.0 0.0 0.00 0.00 0.00 97 996.3
20260510131349 68 289 0.0 0.0 0.00 0.00 0.00 99 996.0
20260510130846 68 335 0.0 0.0 0.00 0.00 0.00 99 996.0
20260510130343 67 225 0.0 0.0 0.00 0.00 0.00 99 996.0
20260510125840 66 14 0.0 0.0 0.00 0.00 0.00 99 996.0
20260510125336 66 302 0.0 0.0 0.00 0.00 0.00 99 996.1
20260510124833 65 300 0.0 0.0 0.00 0.00 0.00 99 996.2
20260510124330 64 297 0.0 0.9 0.00 0.00 0.00 99 996.1
20260510123826 64 287 0.0 0.0 0.00 0.00 0.00 99 995.9
20260510123321 63 315 0.0 0.0 0.00 0.00 0.00 99 996.2
20260510122817 63 288 0.0 0.0 0.00 0.00 0.00 99 996.0
20260510122314 63 293 0.0 0.0 0.00 0.00 0.00 99 996.1
20260510121810 62 211 0.9 0.9 0.00 0.00 0.00 99 995.9
20260510121308 62 267 0.9 0.9 0.00 0.00 0.00 99 995.6
20260510120805 62 280 0.0 0.0 0.00 0.00 0.00 99 995.7
20260510120301 61 287 0.0 0.0 0.00 0.00 0.00 99 995.5
20260510115757 61 287 0.0 0.0 0.00 0.00 0.00 99 995.6
20260510115255 60 292 0.0 0.0 0.00 0.00 0.00 99 995.7
20260510114750 60 294 0.0 0.0 0.00 0.00 0.00 99 995.7
20260510114247 59 292 0.0 0.0 0.00 0.00 0.00 99 995.7
20260510113742 59 305 0.0 0.0 0.00 0.00 0.00 99 995.4
20260510113240 59 305 0.0 0.0 0.00 0.00 0.00 99 995.5
20260510112736 58 294 0.0 0.0 0.00 0.00 0.00 99 995.2
20260510112233 58 300 0.0 0.0 0.00 0.00 0.00 99 995.0
20260510111728 58 283 0.0 0.0 0.00 0.00 0.00 99 995.0
20260510111226 58 273 0.0 0.0 0.00 0.00 0.00 99 994.8
20260510110725 58 282 0.0 0.0 0.00 0.00 0.00 99 994.7
20260510110224 58 282 0.0 0.0 0.00 0.00 0.00 99 994.6
20260510105723 58 282 0.0 0.0 0.00 0.00 0.00 99 994.7
20260510105218 59 282 0.0 0.0 0.00 0.00 0.00 99 994.3
20260510104715 58 286 0.0 0.0 0.00 0.00 0.00 99 994.7
20260510104212 58 293 0.0 0.0 0.00 0.00 0.00 99 994.4
20260510103708 59 294 0.0 0.0 0.00 0.00 0.00 99 994.2
20260510103206 59 294 0.0 0.0 0.00 0.00 0.00 99 994.1
20260510102700 58 294 0.0 0.0 0.00 0.00 0.00 99 994.4
20260510102156 59 294 0.0 0.0 0.00 0.00 0.00 99 994.1
20260510101654 59 293 0.0 0.0 0.00 0.00 0.00 99 994.2
20260510101152 59 294 0.0 0.0 0.00 0.00 0.00 99 994.1
20260510100653 59 293 0.0 0.0 0.00 0.00 0.00 99 994.2
20260510100151 59 293 0.0 0.0 0.00 0.00 0.00 99 994.1
20260510095646 59 293 0.0 0.0 0.00 0.00 0.00 99 994.0
20260510095141 59 298 0.0 0.0 0.00 0.00 0.00 99 993.8
20260510094640 59 298 0.0 0.0 0.00 0.00 0.00 99 993.9
20260510094136 59 311 0.0 0.0 0.00 0.00 0.00 99 993.9
20260510093632 59 327 0.0 0.0 0.00 0.00 0.00 99 993.7
20260510093130 60 327 0.0 0.0 0.00 0.00 0.00 99 993.7
20260510092626 60 327 0.0 0.0 0.00 0.00 0.00 99 993.6
20260510092121 60 329 0.0 0.0 0.00 0.00 0.00 99 993.4
20260510091617 60 331 0.9 0.9 0.00 0.00 0.00 99 993.6
20260510091114 60 315 0.0 0.0 0.00 0.00 0.00 99 993.4
20260510090611 60 306 0.0 0.0 0.00 0.00 0.00 99 993.4
20260510090107 60 305 0.0 0.0 0.00 0.00 0.00 99 993.6
20260510085602 60 295 0.0 0.0 0.00 0.00 0.00 99 993.6
20260510085058 61 295 0.0 0.0 0.00 0.00 0.00 99 993.3
20260510084554 61 294 0.0 0.0 0.00 0.00 0.00 99 993.6
20260510084051 60 288 0.0 0.0 0.00 0.00 0.00 99 993.5
20260510083548 61 293 0.0 0.0 0.00 0.00 0.00 99 993.4
20260510083044 61 293 0.0 0.0 0.00 0.00 0.00 99 993.4
20260510082541 60 315 0.0 0.0 0.00 0.00 0.00 99 993.7
20260510082036 61 316 0.0 0.0 0.00 0.00 0.00 99 993.5
20260510081532 61 316 0.0 0.0 0.00 0.00 0.00 99 993.3
20260510081027 61 316 0.0 0.0 0.00 0.00 0.00 99 993.5
20260510080526 61 316 0.0 0.0 0.00 0.00 0.00 99 993.4
20260510080024 61 316 0.0 0.0 0.00 0.00 0.00 99 993.4
20260510075521 61 316 0.0 0.0 0.00 0.00 0.00 99 993.3
20260510075018 62 316 0.0 0.0 0.00 0.00 0.00 99 993.6
20260510074516 62 307 0.0 0.0 0.00 0.00 0.00 99 993.2
20260510074011 62 291 0.0 0.0 0.00 0.00 0.00 99 993.2
20260510073507 62 282 0.0 0.0 0.00 0.00 0.00 99 993.4
20260510073004 62 276 0.9 0.9 0.00 0.00 0.00 99 993.3
20260510072500 62 253 0.9 0.9 0.00 0.00 0.00 99 993.4
20260510071956 62 288 0.0 0.0 0.00 0.00 0.00 99 993.5
20260510071452 62 278 0.0 0.9 0.00 0.00 0.00 99 993.4
20260510070950 62 286 0.0 0.0 0.00 0.00 0.00 99 993.0
20260510070448 62 289 0.0 0.9 0.00 0.00 0.00 99 993.0
20260510065943 62 268 0.9 0.9 0.00 0.00 0.00 99 993.2
20260510065440 63 258 1.7 1.7 0.00 0.00 0.00 99 993.3
20260510064936 63 260 0.9 0.9 0.00 0.00 0.00 99 993.1
20260510064434 63 280 0.0 0.9 0.00 0.00 0.00 99 993.1
20260510063930 63 257 0.9 0.9 0.00 0.00 0.00 99 993.3
20260510063426 63 269 0.0 0.0 0.00 0.00 0.00 99 993.1
20260510062924 63 272 0.0 0.9 0.00 0.00 0.00 99 993.2
20260510062419 63 285 0.0 0.0 0.00 0.00 0.00 98 992.9
20260510061915 63 286 0.0 0.9 0.00 0.00 0.00 98 993.2
20260510061412 63 265 0.0 0.0 0.00 0.00 0.00 98 993.2
20260510060908 63 286 0.9 0.9 0.00 0.00 0.00 98 993.3
20260510060405 63 272 0.0 0.0 0.00 0.00 0.00 98 993.4
20260510055901 63 289 0.0 0.0 0.00 0.00 0.00 98 993.2
20260510055356 64 281 0.0 0.0 0.00 0.00 0.00 98 993.0
20260510054854 64 271 0.9 0.9 0.00 0.00 0.00 98 993.2
20260510054350 64 282 0.9 0.9 0.00 0.00 0.00 98 993.1
20260510053845 64 235 0.9 0.9 0.00 0.00 0.00 98 993.2
20260510053341 64 269 0.9 0.9 0.00 0.00 0.00 98 993.4
20260510052837 63 294 0.0 0.0 0.00 0.00 0.00 97 993.2
20260510052327 63 263 0.9 0.9 0.00 0.00 0.00 97 993.4
20260510051824 64 298 0.0 0.0 0.00 0.00 0.00 97 993.3
20260510051321 64 289 0.0 0.0 0.00 0.00 0.00 97 993.2
20260510050818 64 299 0.0 0.0 0.00 0.00 0.00 96 993.4
20260510050314 64 273 0.0 0.0 0.00 0.00 0.00 97 993.3
20260510045812 64 295 0.0 0.0 0.00 0.00 0.00 96 993.3
20260510045308 64 291 0.0 0.0 0.00 0.00 0.00 96 993.0
20260510044805 64 279 0.0 0.9 0.00 0.00 0.00 96 993.0
20260510044302 64 284 0.0 0.0 0.00 0.00 0.00 95 993.0
20260510043758 64 280 0.0 0.0 0.00 0.00 0.00 95 993.0
20260510043249 64 300 0.0 0.0 0.00 0.00 0.00 94 993.1
20260510042746 65 308 0.0 0.0 0.00 0.00 0.00 94 993.2
20260510042241 65 291 0.0 0.0 0.00 0.00 0.00 93 993.3
20260510041739 65 287 0.0 0.0 0.00 0.00 0.00 93 993.3
20260510041236 66 352 0.0 0.0 0.00 0.00 0.00 92 993.1
20260510040733 66 287 0.0 0.0 0.00 0.00 0.00 92 992.9
20260510040230 66 280 0.0 0.0 0.00 0.00 0.00 92 993.2
20260510035725 66 288 0.0 0.0 0.00 0.00 0.00 92 993.1
20260510035221 66 227 1.7 1.7 0.00 0.00 0.00 92 993.2
20260510034717 66 262 0.9 0.9 0.00 0.00 0.00 91 993.6
20260510034215 65 179 1.7 1.7 0.00 0.00 0.00 93 993.3
20260510033711 65 277 0.0 0.0 0.00 0.00 0.00 93 993.4
20260510033209 64 284 0.0 0.0 0.00 0.00 0.00 94 993.2
20260510032705 64 292 0.0 0.0 0.00 0.00 0.00 94 993.2
20260510032201 64 259 0.9 0.9 0.00 0.00 0.00 94 993.2
20260510031655 64 284 0.0 0.0 0.00 0.00 0.00 94 993.2
20260510031152 64 278 0.9 0.9 0.00 0.00 0.00 94 993.3
20260510030646 63 267 1.7 1.7 0.00 0.00 0.00 93 993.2
20260510030145 64 259 0.9 0.9 0.00 0.00 0.00 92 993.4
20260510025642 64 274 0.9 0.9 0.00 0.00 0.00 92 993.1
20260510025139 65 273 0.9 0.9 0.00 0.00 0.00 91 993.2
20260510024636 65 335 0.0 0.0 0.00 0.00 0.00 89 993.2
20260510024132 65 337 0.0 0.0 0.00 0.00 0.00 88 993.2
20260510023628 65 352 0.0 0.0 0.00 0.00 0.00 87 993.0
20260510023125 66 31 0.0 0.9 0.00 0.00 0.00 88 993.1
20260510022625 65 300 0.0 0.0 0.00 0.00 0.00 88 992.8
20260510022120 65 275 0.9 0.9 0.00 0.00 0.00 88 992.8
20260510021611 65 274 0.9 0.9 0.00 0.00 0.00 89 992.6
20260510021108 65 276 0.0 0.0 0.00 0.00 0.00 88 992.7
20260510020602 65 278 0.0 0.9 0.00 0.00 0.00 89 992.7
20260510020058 66 243 0.0 0.0 0.00 0.00 0.00 88 992.5
20260510015554 66 306 0.0 0.0 0.00 0.00 0.00 87 992.0
20260510015050 66 275 0.0 0.0 0.00 0.00 0.00 87 992.0
20260510014546 67 313 0.0 0.0 0.00 0.00 0.00 85 992.1
20260510014044 67 314 0.0 0.0 0.00 0.00 0.00 83 991.9
20260510013538 68 286 0.0 0.0 0.00 0.00 0.00 82 991.6
20260510013034 69 304 0.0 0.0 0.00 0.00 0.00 81 991.6
20260510012528 69 314 0.0 0.0 0.00 0.00 0.00 80 991.3
20260510012025 69 313 0.0 0.0 0.00 0.00 0.00 80 991.6
20260510011525 70 314 0.0 0.0 0.00 0.00 0.00 79 991.4
20260510011021 71 317 0.0 0.0 0.00 0.00 0.00 77 991.1
20260510010518 71 295 0.0 0.0 0.00 0.00 0.00 76 991.1
20260510010015 71 278 0.9 0.9 0.00 0.00 0.00 76 991.1
20260510005510 72 301 0.0 0.0 0.00 0.00 0.00 74 991.1
20260510005008 72 329 0.0 0.0 0.00 0.00 0.00 74 991.1
20260510004505 72 323 0.0 0.9 0.00 0.00 0.00 73 990.8
20260510004003 73 315 0.0 0.0 0.00 0.00 0.00 71 990.9
20260510003500 73 313 0.0 0.0 0.00 0.00 0.00 71 990.8
20260510002955 74 318 0.0 0.0 0.00 0.00 0.00 70 990.6
20260510002451 74 320 0.0 0.0 0.00 0.00 0.00 69 990.6
20260510001947 74 314 0.0 0.0 0.00 0.00 0.00 67 990.6
20260510001445 74 300 0.0 0.0 0.00 0.00 0.00 65 990.5
20260510000943 75 307 0.0 0.0 0.00 0.00 0.00 63 990.7
20260510000440 75 243 0.9 0.9 0.00 0.00 0.00 60 990.5
20260509235935 76 300 0.0 0.0 0.00 0.00 0.00 48 990.6
20260509235432 77 309 0.0 0.9 0.00 0.00 0.00 45 990.4
20260509234928 77 310 0.9 0.9 0.00 0.00 0.00 44 990.5
20260509234425 77 303 0.0 0.0 0.00 0.00 0.00 42 990.5
20260509233923 77 305 0.0 0.0 0.00 0.00 0.00 41 990.4
20260509233421 78 301 0.0 0.0 0.00 0.00 0.00 42 990.5
20260509232916 78 302 0.0 0.9 0.00 0.00 0.00 41 990.3
20260509232414 78 301 0.0 0.9 0.00 0.00 0.00 41 990.4
20260509231910 78 298 0.0 0.0 0.00 0.00 0.00 42 990.5
20260509231407 79 331 0.0 0.0 0.00 0.00 0.00 41 990.5
20260509230905 79 321 0.0 0.9 0.00 0.00 0.00 41 990.6
20260509230401 80 282 0.9 0.9 0.00 0.00 0.00 43 990.4
20260509225857 80 311 0.0 0.0 0.00 0.00 0.00 40 990.5
20260509225353 80 17 0.0 0.9 0.00 0.00 0.00 42 990.2
20260509224849 81 332 0.0 0.9 0.00 0.00 0.00 43 990.2
20260509224345 82 250 1.7 1.7 0.00 0.00 0.00 42 990.1
20260509223842 83 30 1.7 1.7 0.00 0.00 0.00 41 990.0
20260509223339 84 280 0.9 0.9 0.00 0.00 0.00 37 990.0
20260509222836 84 295 0.0 0.9 0.00 0.00 0.00 36 990.1
20260509222331 83 313 0.0 0.9 0.00 0.00 0.00 38 989.9
20260509221827 84 313 0.9 0.9 0.00 0.00 0.00 38 989.8
20260509221325 85 328 0.0 0.9 0.00 0.00 0.00 37 989.8
20260509220825 85 302 0.0 0.0 0.00 0.00 0.00 38 989.9
20260509220321 83 294 0.0 0.9 0.00 0.00 0.00 37 989.9
20260509215817 82 306 0.0 0.0 0.00 0.00 0.00 38 990.0
20260509215314 83 347 2.6 4.3 0.00 0.00 0.00 38 989.8
20260509214811 86 12 1.7 2.6 0.00 0.00 0.00 35 990.0
20260509214308 86 263 0.9 0.9 0.00 0.00 0.00 37 989.9
20260509213804 86 295 0.9 0.9 0.00 0.00 0.00 36 990.1
20260509213300 86 314 0.9 0.9 0.00 0.00 0.00 37 990.2
20260509212758 83 322 0.9 0.9 0.00 0.00 0.00 37 990.2
20260509212255 84 327 0.9 1.7 0.00 0.00 0.00 39 990.2
20260509211750 84 301 0.0 0.9 0.00 0.00 0.00 39 990.3
20260509211247 83 282 1.7 1.7 0.00 0.00 0.00 38 990.1
20260509210743 85 0 1.7 1.7 0.00 0.00 0.00 38 990.3
20260509210242 85 326 0.9 0.9 0.00 0.00 0.00 38 990.6
20260509205741 87 105 0.9 0.9 0.00 0.00 0.00 37 990.4
20260509205236 86 298 0.0 0.0 0.00 0.00 0.00 36 990.4
20260509204732 85 297 1.7 1.7 0.00 0.00 0.00 39 990.2
20260509204229 81 219 0.0 0.9 0.00 0.00 0.00 41 990.1
20260509203725 84 6 2.6 2.6 0.00 0.00 0.00 38 990.2
20260509203223 84 306 0.9 0.9 0.00 0.00 0.00 39 990.2
20260509202719 85 342 1.7 1.7 0.00 0.00 0.00 37 990.4
20260509202215 84 320 0.0 0.9 0.00 0.00 0.00 43 990.2
20260509201709 84 155 2.6 2.6 0.00 0.00 0.00 36 990.5
20260509201207 87 212 1.7 1.7 0.00 0.00 0.00 33 990.4
20260509200703 88 178 0.9 0.9 0.00 0.00 0.00 36 990.5
20260509200157 89 255 1.7 2.6 0.00 0.00 0.00 35 990.4
20260509195653 86 299 0.0 0.9 0.00 0.00 0.00 38 990.4
20260509195149 86 292 0.0 0.9 0.00 0.00 0.00 38 990.8
20260509194643 83 230 0.9 0.9 0.00 0.00 0.00 42 990.7
20260509194141 81 349 2.6 2.6 0.00 0.00 0.00 42 990.6
20260509193636 82 6 0.9 0.9 0.00 0.00 0.00 41 990.7
20260509193132 85 326 0.9 0.9 0.00 0.00 0.00 40 990.9
20260509192629 85 350 1.7 1.7 0.00 0.00 0.00 36 991.0
20260509192123 84 311 0.0 0.0 0.00 0.00 0.00 39 990.9
20260509191618 86 293 0.0 0.0 0.00 0.00 0.00 40 990.7
20260509191115 84 292 0.9 1.7 0.00 0.00 0.00 42 990.8
20260509190611 84 312 1.7 1.7 0.00 0.00 0.00 40 991.0
20260509190109 87 189 1.7 1.7 0.00 0.00 0.00 37 991.1
20260509185606 88 322 0.9 0.9 0.00 0.00 0.00 36 991.0
20260509185102 85 306 0.0 0.0 0.00 0.00 0.00 42 990.8
20260509184601 84 301 0.9 0.9 0.00 0.00 0.00 40 991.1
20260509184057 82 237 1.7 1.7 0.00 0.00 0.00 42 991.0
20260509183552 82 36 1.7 1.7 0.00 0.00 0.00 44 991.0
20260509183048 84 149 0.9 0.9 0.00 0.00 0.00 42 991.1
20260509182545 87 148 2.6 4.3 0.00 0.00 0.00 39 991.3
20260509182042 89 279 0.0 0.9 0.00 0.00 0.00 39 991.4
20260509181540 84 255 0.9 1.7 0.00 0.00 0.00 43 991.1
20260509181037 86 348 1.7 1.7 0.00 0.00 0.00 44 991.3
20260509180532 84 317 0.9 0.9 0.00 0.00 0.00 47 991.2
20260509180030 85 256 0.9 1.7 0.00 0.00 0.00 44 991.4
20260509175525 85 262 0.9 0.9 0.00 0.00 0.00 43 991.3
20260509175023 84 60 0.9 0.9 0.00 0.00 0.00 46 991.5
20260509174519 87 246 0.9 0.9 0.00 0.00 0.00 41 991.4
20260509174014 81 319 1.7 1.7 0.00 0.00 0.00 46 991.5
20260509173509 80 323 1.7 1.7 0.00 0.00 0.00 48 991.4
20260509173005 82 9 1.7 2.6 0.00 0.00 0.00 48 991.4
20260509172503 82 2 3.5 4.3 0.00 0.00 0.00 49 991.3
20260509171958 82 32 2.6 4.3 0.00 0.00 0.00 48 991.3
20260509171454 82 303 1.7 1.7 0.00 0.00 0.00 49 991.5
20260509170951 83 288 0.0 0.0 0.00 0.00 0.00 48 991.2
20260509170446 86 303 2.6 2.6 0.00 0.00 0.00 43 991.3
20260509165942 83 313 0.9 0.9 0.00 0.00 0.00 48 991.4
20260509165441 82 336 1.7 1.7 0.00 0.00 0.00 53 991.5
20260509164937 84 345 0.9 0.9 0.00 0.00 0.00 50 991.3
20260509164433 83 346 0.9 0.9 0.00 0.00 0.00 49 991.5
20260509163929 83 329 0.0 0.0 0.00 0.00 0.00 47 991.6
20260509163427 81 178 0.9 0.9 0.00 0.00 0.00 52 991.5
20260509162926 82 333 0.0 0.0 0.00 0.00 0.00 53 991.7
20260509162425 81 319 0.0 0.9 0.00 0.00 0.00 51 991.5
20260509161920 79 351 0.0 0.0 0.00 0.00 0.00 57 991.5
20260509161417 80 260 0.0 0.0 0.00 0.00 0.00 57 991.7
20260509160912 79 335 0.0 0.0 0.00 0.00 0.00 61 991.2
20260509160408 79 26 0.9 1.7 0.00 0.00 0.00 60 991.5
20260509155903 78 151 0.0 0.0 0.00 0.00 0.00 60 991.3
20260509155401 80 286 0.0 0.9 0.00 0.00 0.00 56 991.3
20260509154857 77 356 0.0 0.0 0.00 0.00 0.00 59 991.4
20260509154353 79 100 1.7 1.7 0.00 0.00 0.00 58 991.3
20260509153850 75 292 0.9 1.7 0.00 0.00 0.00 65 991.3